Location: Unspecified
(48.7670°N, 0.0000°E)
Time: 03:26:50
(UTC+00:00)

A-11 Canister half - Pass Details

Date: 03 July 2019
Orbit: 1526 x 1683 km, 47.3° (Epoch: 21 July)

Event Time Altitude Azimuth Distance (km) Brightness Sun altitude
Exits shadow 00:57:34 23° 191° (S) 2,891 9.8 -17.3°
Maximum altitude 01:02:39 39° 141° (SE) 2,221 9.5 -17.1°
Drops below altitude 10° 01:11:05 10° 78° (ENE) 3,731 11.4 -16.7°
Sets 01:14:21 0° 71° (ENE) 4,702 12.1 -16.5°
